{"data":{"norad_id":63021,"epoch":"2026-05-25T00:47:01.434336Z","epoch_age_seconds":69008,"freshness":"FRESH","line1":"1 63021U 25032S   26145.03265549  .00015689  00000+0  57853-3 0  9995","line2":"2 63021  43.0012 265.0810 0001148 284.4969  75.5755 15.27574410 72292","mean_motion":15.2757441,"eccentricity":0.0001148,"inclination_deg":43.0012,"raan_deg":265.081,"arg_perigee_deg":284.4969,"mean_anomaly_deg":75.5755,"bstar":0.00057853,"rev_number":7229,"period_min":94.267093673034,"perigee_km":482.27816847628,"apogee_km":483.8535006471,"semimajor_km":6861.2028345617,"source":"CELESTRAK","updated_at":"2026-05-25T13:38:19.862689Z"}}